Time,TemperatureF,DewpointF,PressureIn,WindDirection,WindDirectionDegrees,WindSpeedMPH,WindSpeedGustMPH,Humidity,HourlyPrecipIn,Conditions,Clouds,dailyrainin,SoftwareType,DateUTC
2013-08-31 00:01:00,72.5,67.4,30.01,SSW,192,2.0,2.0,84,0.00,,---,0.00,VWS V14.01,2013-08-31 04:01:00,
2013-08-31 00:02:00,72.4,67.3,30.01,SSW,192,0.0,2.0,84,0.00,,---,0.00,VWS V14.01,2013-08-31 04:02:00,
2013-08-31 00:04:00,72.4,67.3,30.00,SSW,192,2.0,2.0,84,0.00,,---,0.00,VWS V14.01,2013-08-31 04:04:00,
2013-08-31 00:09:00,72.4,67.3,30.00,SSW,194,0.0,3.0,84,0.00,,---,0.00,VWS V14.01,2013-08-31 04:09:00,
2013-08-31 00:14:00,72.4,67.3,30.00,SSW,194,0.0,3.0,84,0.00,,---,0.00,VWS V14.01,2013-08-31 04:14:00,
2013-08-31 00:19:00,72.2,67.1,30.00,SSW,194,0.0,1.0,84,0.00,,---,0.00,VWS V14.01,2013-08-31 04:19:00,
2013-08-31 00:25:00,72.1,67.0,30.00,SSW,194,0.0,1.0,84,0.00,,---,0.00,VWS V14.01,2013-08-31 04:25:00,
2013-08-31 00:30:00,71.9,67.2,30.00,SSW,194,0.0,1.0,85,0.00,,---,0.00,VWS V14.01,2013-08-31 04:30:00,
2013-08-31 00:35:00,71.7,66.9,30.00,SSW,194,0.0,0.0,85,0.00,,---,0.00,VWS V14.01,2013-08-31 04:35:00,
2013-08-31 00:41:00,71.5,66.8,30.00,SSW,194,0.0,0.0,85,0.00,,---,0.00,VWS V14.01,2013-08-31 04:41:00,
2013-08-31 00:46:00,71.2,66.8,30.01,SSW,194,0.0,0.0,86,0.00,,---,0.00,VWS V14.01,2013-08-31 04:46:00,
2013-08-31 00:51:00,70.9,66.5,30.00,SSW,194,0.0,0.0,86,0.00,,---,0.00,VWS V14.01,2013-08-31 04:51:00,
2013-08-31 00:56:00,70.4,66.3,30.00,SSW,194,0.0,0.0,87,0.00,,---,0.00,VWS V14.01,2013-08-31 04:56:00,
2013-08-31 01:01:00,69.8,65.8,30.00,SSW,194,0.0,0.0,87,0.00,,---,0.00,VWS V14.01,2013-08-31 05:01:00,
2013-08-31 01:06:00,69.5,66.1,30.00,SSW,194,0.0,0.0,89,0.00,,---,0.00,VWS V14.01,2013-08-31 05:06:00,
2013-08-31 01:11:00,69.7,66.3,30.00,SSW,194,0.0,0.0,89,0.00,,---,0.00,VWS V14.01,2013-08-31 05:11:00,
2013-08-31 01:17:00,70.0,66.6,30.00,SSW,194,0.0,0.0,89,0.00,,---,0.00,VWS V14.01,2013-08-31 05:17:00,
2013-08-31 01:22:00,70.1,66.4,30.00,SSW,194,0.0,0.0,88,0.00,,---,0.00,VWS V14.01,2013-08-31 05:22:00,
2013-08-31 01:27:00,69.9,66.5,30.00,SSW,194,0.0,0.0,89,0.00,,---,0.00,VWS V14.01,2013-08-31 05:27:00,
2013-08-31 01:32:00,70.0,66.6,30.00,SSW,194,0.0,0.0,89,0.00,,---,0.00,VWS V14.01,2013-08-31 05:32:00,
2013-08-31 01:37:00,69.9,66.5,30.00,SSW,194,0.0,0.0,89,0.00,,---,0.00,VWS V14.01,2013-08-31 05:37:00,
2013-08-31 01:42:00,69.9,66.5,30.00,SSW,194,0.0,0.0,89,0.00,,---,0.00,VWS V14.01,2013-08-31 05:42:00,
2013-08-31 01:47:00,69.8,66.4,30.00,SSW,194,0.0,0.0,89,0.00,,---,0.00,VWS V14.01,2013-08-31 05:47:00,
2013-08-31 01:53:00,69.7,66.3,29.99,SSW,194,0.0,0.0,89,0.00,,---,0.00,VWS V14.01,2013-08-31 05:53:00,
2013-08-31 01:58:00,69.7,66.3,29.99,SSW,194,0.0,0.0,89,0.00,,---,0.00,VWS V14.01,2013-08-31 05:58:00,
2013-08-31 02:03:00,69.8,66.7,29.99,SSW,194,0.0,0.0,90,0.00,,---,0.00,VWS V14.01,2013-08-31 06:03:00,
2013-08-31 02:08:00,69.8,66.4,29.99,SSW,194,0.0,0.0,89,0.00,,---,0.00,VWS V14.01,2013-08-31 06:08:00,
2013-08-31 02:13:00,69.9,66.5,29.99,SSW,194,0.0,1.0,89,0.00,,---,0.00,VWS V14.01,2013-08-31 06:13:00,
2013-08-31 02:18:00,69.7,66.3,29.99,SSW,194,0.0,1.0,89,0.00,,---,0.00,VWS V14.01,2013-08-31 06:18:00,
2013-08-31 02:23:00,69.8,66.4,29.99,SSW,194,0.0,1.0,89,0.00,,---,0.00,VWS V14.01,2013-08-31 06:23:00,
2013-08-31 02:28:00,69.9,66.5,29.99,SSW,194,0.0,1.0,89,0.00,,---,0.00,VWS V14.01,2013-08-31 06:28:00,
2013-08-31 02:33:00,69.9,66.5,29.99,SSW,194,0.0,0.0,89,0.00,,---,0.00,VWS V14.01,2013-08-31 06:33:00,
2013-08-31 02:38:00,69.8,66.4,29.99,SSW,194,0.0,0.0,89,0.00,,---,0.00,VWS V14.01,2013-08-31 06:38:00,
2013-08-31 02:43:00,69.7,66.6,29.99,SSW,194,0.0,0.0,90,0.00,,---,0.00,VWS V14.01,2013-08-31 06:43:00,
2013-08-31 02:48:00,69.7,66.3,29.99,SSW,194,0.0,0.0,89,0.00,,---,0.00,VWS V14.01,2013-08-31 06:48:00,
2013-08-31 02:54:00,69.5,66.4,29.99,SSW,194,0.0,0.0,90,0.00,,---,0.00,VWS V14.01,2013-08-31 06:54:00,
2013-08-31 02:59:00,69.4,66.3,29.99,SSW,194,0.0,0.0,90,0.00,,---,0.00,VWS V14.01,2013-08-31 06:59:00,
2013-08-31 03:04:00,69.4,66.3,29.99,SSW,194,0.0,1.0,90,0.00,,---,0.00,VWS V14.01,2013-08-31 07:04:00,
2013-08-31 03:09:00,69.4,66.3,29.99,SSW,194,0.0,1.0,90,0.00,,---,0.00,VWS V14.01,2013-08-31 07:09:00,
2013-08-31 03:14:00,69.4,66.3,29.99,SSW,194,0.0,1.0,90,0.00,,---,0.00,VWS V14.01,2013-08-31 07:14:00,
2013-08-31 03:19:00,69.4,66.3,29.99,SSW,194,1.0,1.0,90,0.00,,---,0.00,VWS V14.01,2013-08-31 07:19:00,
2013-08-31 03:24:00,69.4,66.3,29.99,SSW,194,1.0,1.0,90,0.00,,---,0.00,VWS V14.01,2013-08-31 07:24:00,
2013-08-31 03:29:00,69.5,66.4,29.99,SSW,194,0.0,1.0,90,0.00,,---,0.00,VWS V14.01,2013-08-31 07:29:00,
2013-08-31 03:34:00,69.5,66.4,29.99,SSW,194,0.0,0.0,90,0.00,,---,0.00,VWS V14.01,2013-08-31 07:34:00,
2013-08-31 03:39:00,69.4,66.3,29.99,SSW,194,0.0,0.0,90,0.00,,---,0.00,VWS V14.01,2013-08-31 07:39:00,
2013-08-31 03:45:00,69.3,66.6,29.99,SSW,194,0.0,0.0,91,0.00,,---,0.00,VWS V14.01,2013-08-31 07:45:00,
2013-08-31 03:50:00,69.2,66.5,29.99,SSW,194,0.0,1.0,91,0.00,,---,0.00,VWS V14.01,2013-08-31 07:50:00,
2013-08-31 03:55:00,69.3,66.6,29.99,SSW,194,0.0,1.0,91,0.00,,---,0.00,VWS V14.01,2013-08-31 07:55:00,
2013-08-31 04:00:00,69.4,66.7,29.99,SSW,194,0.0,1.0,91,0.00,,---,0.00,VWS V14.01,2013-08-31 08:00:00,
2013-08-31 04:05:00,69.4,66.7,29.99,SSW,194,0.0,1.0,91,0.00,,---,0.00,VWS V14.01,2013-08-31 08:05:00,
2013-08-31 04:10:00,69.3,66.6,29.99,SSW,194,0.0,1.0,91,0.00,,---,0.00,VWS V14.01,2013-08-31 08:10:00,
2013-08-31 04:15:00,69.2,66.5,29.99,SSW,194,0.0,1.0,91,0.00,,---,0.00,VWS V14.01,2013-08-31 08:15:00,
2013-08-31 04:20:00,69.1,66.4,29.98,SSW,194,0.0,0.0,91,0.00,,---,0.00,VWS V14.01,2013-08-31 08:20:00,
2013-08-31 04:25:00,69.0,66.3,29.98,SSW,194,0.0,1.0,91,0.00,,---,0.00,VWS V14.01,2013-08-31 08:25:00,
2013-08-31 04:30:00,68.9,66.5,29.98,SSW,194,0.0,0.0,92,0.00,,---,0.00,VWS V14.01,2013-08-31 08:30:00,
2013-08-31 04:35:00,68.8,66.4,29.99,SSW,194,0.0,1.0,92,0.00,,---,0.00,VWS V14.01,2013-08-31 08:35:00,
2013-08-31 04:40:00,68.8,66.4,29.99,SSW,194,0.0,1.0,92,0.00,,---,0.00,VWS V14.01,2013-08-31 08:40:00,
2013-08-31 04:46:00,68.8,66.4,29.98,SSW,194,0.0,0.0,92,0.00,,---,0.00,VWS V14.01,2013-08-31 08:46:00,
2013-08-31 04:51:00,68.9,66.5,29.98,SSW,194,0.0,1.0,92,0.00,,---,0.00,VWS V14.01,2013-08-31 08:51:00,
2013-08-31 04:56:00,68.9,66.5,29.98,SSW,194,0.0,1.0,92,0.00,,---,0.00,VWS V14.01,2013-08-31 08:56:00,
2013-08-31 05:01:00,69.0,66.9,29.98,SSW,194,0.0,1.0,93,0.00,,---,0.00,VWS V14.01,2013-08-31 09:01:00,
2013-08-31 05:06:00,69.1,66.7,29.98,SSW,194,0.0,1.0,92,0.00,,---,0.00,VWS V14.01,2013-08-31 09:06:00,
2013-08-31 05:11:00,69.2,66.8,29.98,SSW,194,0.0,1.0,92,0.00,,---,0.00,VWS V14.01,2013-08-31 09:11:00,
2013-08-31 05:16:00,69.2,67.1,29.98,SSW,194,0.0,0.0,93,0.00,,---,0.00,VWS V14.01,2013-08-31 09:16:00,
2013-08-31 05:21:00,69.2,67.1,29.98,SSW,194,0.0,1.0,93,0.00,,---,0.00,VWS V14.01,2013-08-31 09:21:00,
2013-08-31 05:26:00,69.3,67.2,29.98,SSW,194,0.0,1.0,93,0.00,,---,0.00,VWS V14.01,2013-08-31 09:26:00,
2013-08-31 05:31:00,69.4,67.3,29.98,SSW,194,0.0,2.0,93,0.00,,---,0.00,VWS V14.01,2013-08-31 09:31:00,
2013-08-31 05:36:00,69.5,67.4,29.99,SSW,194,0.0,2.0,93,0.00,,---,0.00,VWS V14.01,2013-08-31 09:36:00,
2013-08-31 05:41:00,69.5,67.4,29.99,SSW,194,0.0,3.0,93,0.00,,---,0.00,VWS V14.01,2013-08-31 09:41:00,
2013-08-31 05:46:00,69.5,67.4,29.99,SSW,194,0.0,1.0,93,0.00,,---,0.00,VWS V14.01,2013-08-31 09:46:00,
2013-08-31 05:51:00,69.5,67.4,29.99,SSW,194,0.0,1.0,93,0.00,,---,0.00,VWS V14.01,2013-08-31 09:51:00,
2013-08-31 05:56:00,69.5,67.4,29.99,SSW,195,0.0,3.0,93,0.00,,---,0.00,VWS V14.01,2013-08-31 09:56:00,
2013-08-31 06:02:00,69.5,67.4,29.99,SSW,195,0.0,0.0,93,0.00,,---,0.00,VWS V14.01,2013-08-31 10:02:00,
2013-08-31 06:07:00,69.5,67.4,29.99,SSW,195,0.0,1.0,93,0.00,,---,0.00,VWS V14.01,2013-08-31 10:07:00,
2013-08-31 06:12:00,69.5,67.4,29.99,SSW,196,0.0,2.0,93,0.00,,---,0.00,VWS V14.01,2013-08-31 10:12:00,
2013-08-31 06:17:00,69.4,67.3,29.99,SSW,196,0.0,0.0,93,0.00,,---,0.00,VWS V14.01,2013-08-31 10:17:00,
2013-08-31 06:22:00,69.4,67.3,29.99,SSW,196,0.0,1.0,93,0.00,,---,0.00,VWS V14.01,2013-08-31 10:22:00,
2013-08-31 06:27:00,69.3,67.2,29.99,SSW,196,0.0,1.0,93,0.00,,---,0.00,VWS V14.01,2013-08-31 10:27:00,
2013-08-31 06:32:00,69.2,67.1,29.98,SSW,196,0.0,1.0,93,0.00,,---,0.00,VWS V14.01,2013-08-31 10:32:00,
2013-08-31 06:37:00,69.0,66.9,29.99,SSW,196,0.0,1.0,93,0.00,,---,0.00,VWS V14.01,2013-08-31 10:37:00,
2013-08-31 06:42:00,69.0,66.9,29.99,SSW,196,0.0,1.0,93,0.00,,---,0.00,VWS V14.01,2013-08-31 10:42:00,
2013-08-31 06:47:00,69.2,67.4,29.99,SSW,196,0.0,1.0,94,0.00,,---,0.00,VWS V14.01,2013-08-31 10:47:00,
2013-08-31 06:52:00,69.3,67.5,29.99,SSW,196,0.0,1.0,94,0.00,,---,0.00,VWS V14.01,2013-08-31 10:52:00,
2013-08-31 06:57:00,69.3,67.5,29.99,SW,215,1.0,3.0,94,0.00,,---,0.00,VWS V14.01,2013-08-31 10:57:00,
2013-08-31 07:02:00,69.3,67.5,29.99,SW,215,0.0,1.0,94,0.00,,---,0.00,VWS V14.01,2013-08-31 11:02:00,
2013-08-31 07:07:00,69.3,67.5,29.99,SW,215,0.0,1.0,94,0.00,,---,0.00,VWS V14.01,2013-08-31 11:07:00,
2013-08-31 07:12:00,69.2,67.4,29.99,SW,215,0.0,1.0,94,0.00,,---,0.00,VWS V14.01,2013-08-31 11:12:00,
2013-08-31 07:18:00,69.2,67.4,29.99,SW,215,0.0,0.0,94,0.00,,---,0.00,VWS V14.01,2013-08-31 11:18:00,
2013-08-31 07:23:00,69.2,67.4,29.99,SW,215,0.0,1.0,94,0.00,,---,0.00,VWS V14.01,2013-08-31 11:23:00,
2013-08-31 07:28:00,69.3,67.5,29.99,SW,215,0.0,1.0,94,0.00,,---,0.00,VWS V14.01,2013-08-31 11:28:00,
2013-08-31 07:33:00,69.4,67.6,29.99,SW,215,0.0,0.0,94,0.00,,---,0.00,VWS V14.01,2013-08-31 11:33:00,
2013-08-31 07:38:00,69.6,67.8,30.00,SW,229,0.0,2.0,94,0.00,,---,0.00,VWS V14.01,2013-08-31 11:38:00,
2013-08-31 07:43:00,70.0,68.2,30.00,SSW,212,1.0,2.0,94,0.00,,---,0.00,VWS V14.01,2013-08-31 11:43:00,
2013-08-31 07:48:00,70.3,68.5,30.00,South,180,0.0,2.0,94,0.00,,---,0.00,VWS V14.01,2013-08-31 11:48:00,
2013-08-31 07:53:00,70.5,68.4,29.99,South,180,1.0,2.0,93,0.00,,---,0.00,VWS V14.01,2013-08-31 11:53:00,
2013-08-31 07:58:00,70.8,68.7,29.99,South,188,0.0,2.0,93,0.00,,---,0.00,VWS V14.01,2013-08-31 11:58:00,
2013-08-31 08:03:00,71.1,69.0,30.00,South,188,0.0,1.0,93,0.00,,---,0.00,VWS V14.01,2013-08-31 12:03:00,
2013-08-31 08:08:00,71.6,69.5,30.00,South,188,0.0,1.0,93,0.00,,---,0.00,VWS V14.01,2013-08-31 12:08:00,
2013-08-31 08:13:00,72.0,69.2,30.00,South,188,0.0,1.0,91,0.00,,---,0.00,VWS V14.01,2013-08-31 12:13:00,
2013-08-31 08:18:00,72.5,70.1,30.00,South,191,0.0,2.0,92,0.00,,---,0.00,VWS V14.01,2013-08-31 12:18:00,
2013-08-31 08:23:00,73.2,70.4,30.00,South,191,1.0,2.0,91,0.00,,---,0.00,VWS V14.01,2013-08-31 12:23:00,
2013-08-31 08:29:00,73.9,70.5,30.00,South,191,0.0,2.0,89,0.00,,---,0.00,VWS V14.01,2013-08-31 12:29:00,
2013-08-31 08:34:00,74.1,70.7,30.00,South,191,0.0,2.0,89,0.00,,---,0.00,VWS V14.01,2013-08-31 12:34:00,
2013-08-31 08:39:00,74.4,70.9,30.00,South,191,0.0,2.0,89,0.00,,---,0.00,VWS V14.01,2013-08-31 12:39:00,
2013-08-31 08:44:00,74.8,71.0,30.00,South,191,0.0,2.0,88,0.00,,---,0.00,VWS V14.01,2013-08-31 12:44:00,
2013-08-31 08:49:00,75.3,71.8,30.00,SSW,194,0.0,2.0,89,0.00,,---,0.00,VWS V14.01,2013-08-31 12:49:00,
2013-08-31 08:54:00,76.4,71.9,30.00,NW,312,1.0,3.0,86,0.00,,---,0.00,VWS V14.01,2013-08-31 12:54:00,
2013-08-31 08:59:00,77.1,72.6,30.00,SW,230,0.0,3.0,86,0.00,,---,0.00,VWS V14.01,2013-08-31 12:59:00,
2013-08-31 09:04:00,77.8,72.6,30.00,West,281,0.0,4.0,84,0.00,,---,0.00,VWS V14.01,2013-08-31 13:04:00,
2013-08-31 09:09:00,77.8,72.6,30.00,WSW,252,1.0,4.0,84,0.00,,---,0.00,VWS V14.01,2013-08-31 13:09:00,
2013-08-31 09:14:00,78.0,73.5,30.00,NW,314,1.0,4.0,86,0.00,,---,0.00,VWS V14.01,2013-08-31 13:14:00,
2013-08-31 09:19:00,78.2,73.0,30.00,SSW,192,1.0,3.0,84,0.00,,---,0.00,VWS V14.01,2013-08-31 13:19:00,
2013-08-31 09:24:00,78.0,72.8,30.00,SW,215,1.0,4.0,84,0.00,,---,0.00,VWS V14.01,2013-08-31 13:24:00,
2013-08-31 09:29:00,78.2,73.3,30.00,South,190,2.0,4.0,85,0.00,,---,0.00,VWS V14.01,2013-08-31 13:29:00,
2013-08-31 09:34:00,79.6,73.6,30.00,SW,225,0.0,3.0,82,0.00,,---,0.00,VWS V14.01,2013-08-31 13:34:00,
2013-08-31 09:40:00,80.0,74.4,30.00,South,178,2.0,4.0,83,0.00,,---,0.00,VWS V14.01,2013-08-31 13:40:00,
2013-08-31 09:45:00,79.5,73.2,30.01,South,174,5.0,5.0,81,0.00,,---,0.00,VWS V14.01,2013-08-31 13:45:00,
2013-08-31 09:50:00,80.5,74.1,30.00,SSE,156,3.0,5.0,81,0.00,,---,0.00,VWS V14.01,2013-08-31 13:50:00,
2013-08-31 09:55:00,79.7,73.4,30.01,SSW,192,5.0,5.0,81,0.00,,---,0.00,VWS V14.01,2013-08-31 13:55:00,
2013-08-31 10:00:00,79.8,73.4,30.01,SSW,205,1.0,6.0,81,0.00,,---,0.00,VWS V14.01,2013-08-31 14:00:00,
2013-08-31 10:05:00,80.3,73.6,30.01,South,190,0.0,5.0,80,0.00,,---,0.00,VWS V14.01,2013-08-31 14:05:00,
2013-08-31 10:10:00,80.8,73.3,30.01,SW,217,1.0,7.0,78,0.00,,---,0.00,VWS V14.01,2013-08-31 14:10:00,
2013-08-31 10:15:00,81.0,73.1,30.01,SW,215,1.0,7.0,77,0.00,,---,0.00,VWS V14.01,2013-08-31 14:15:00,
2013-08-31 10:20:00,81.4,73.9,30.01,WSW,252,0.0,6.0,78,0.00,,---,0.00,VWS V14.01,2013-08-31 14:20:00,
2013-08-31 10:25:00,81.8,73.9,30.01,SSE,151,2.0,6.0,77,0.00,,---,0.00,VWS V14.01,2013-08-31 14:25:00,
2013-08-31 10:30:00,81.5,73.6,30.01,South,188,2.0,2.0,77,0.00,,---,0.00,VWS V14.01,2013-08-31 14:30:00,
2013-08-31 10:35:00,81.1,73.2,30.01,SSE,147,1.0,5.0,77,0.00,,---,0.00,VWS V14.01,2013-08-31 14:35:00,
2013-08-31 10:40:00,81.1,73.6,30.01,WNW,287,3.0,5.0,78,0.00,,---,0.00,VWS V14.01,2013-08-31 14:40:00,
2013-08-31 10:46:00,81.8,74.3,30.01,SW,236,1.0,3.0,78,0.00,,---,0.00,VWS V14.01,2013-08-31 14:46:00,
2013-08-31 10:51:00,82.5,73.0,30.01,SSW,192,2.0,7.0,73,0.00,,---,0.00,VWS V14.01,2013-08-31 14:51:00,
2013-08-31 10:56:00,81.9,72.8,30.01,South,180,2.0,7.0,74,0.00,,---,0.00,VWS V14.01,2013-08-31 14:56:00,
2013-08-31 11:01:00,81.8,73.5,30.01,SW,222,4.0,5.0,76,0.00,,---,0.00,VWS V14.01,2013-08-31 15:01:00,
2013-08-31 11:06:00,81.6,73.3,30.01,WSW,243,4.0,6.0,76,0.00,,---,0.00,VWS V14.01,2013-08-31 15:06:00,
2013-08-31 11:11:00,82.5,74.6,30.01,WNW,302,3.0,6.0,77,0.00,,---,0.00,VWS V14.01,2013-08-31 15:11:00,
2013-08-31 11:16:00,83.4,74.2,30.01,South,176,2.0,4.0,74,0.00,,---,0.00,VWS V14.01,2013-08-31 15:16:00,
2013-08-31 11:21:00,83.1,73.6,30.01,WSW,251,3.0,7.0,73,0.00,,---,0.00,VWS V14.01,2013-08-31 15:21:00,
2013-08-31 11:26:00,83.6,74.8,30.00,SSW,198,2.0,7.0,75,0.00,,---,0.00,VWS V14.01,2013-08-31 15:26:00,
2013-08-31 11:31:00,83.6,73.2,30.00,SSE,159,5.0,6.0,71,0.00,,---,0.00,VWS V14.01,2013-08-31 15:31:00,
2013-08-31 11:36:00,84.4,74.8,30.00,SSW,213,0.0,6.0,73,0.00,,---,0.00,VWS V14.01,2013-08-31 15:36:00,
2013-08-31 11:41:00,84.7,73.4,30.00,NW,304,0.0,6.0,69,0.00,,---,0.00,VWS V14.01,2013-08-31 15:41:00,
2013-08-31 11:47:00,84.7,75.5,30.00,SSW,209,0.0,5.0,74,0.00,,---,0.00,VWS V14.01,2013-08-31 15:47:00,
2013-08-31 11:52:00,84.9,73.6,30.00,NW,314,2.0,6.0,69,0.00,,---,0.00,VWS V14.01,2013-08-31 15:52:00,
2013-08-31 11:57:00,84.1,72.8,29.99,West,271,1.0,6.0,69,0.00,,---,0.00,VWS V14.01,2013-08-31 15:57:00,
2013-08-31 12:02:00,85.2,75.2,29.99,SSW,200,0.0,5.0,72,0.00,,---,0.00,VWS V14.01,2013-08-31 16:02:00,
2013-08-31 12:07:00,85.0,74.1,29.99,WNW,298,2.0,6.0,70,0.00,,---,0.00,VWS V14.01,2013-08-31 16:07:00,
2013-08-31 12:12:00,84.0,73.2,29.99,SSW,192,0.0,6.0,70,0.00,,---,0.00,VWS V14.01,2013-08-31 16:12:00,
2013-08-31 12:17:00,85.0,75.0,29.99,SW,232,0.0,4.0,72,0.00,,---,0.00,VWS V14.01,2013-08-31 16:17:00,
2013-08-31 12:22:00,86.1,74.8,29.99,WSW,248,0.0,5.0,69,0.00,,---,0.00,VWS V14.01,2013-08-31 16:22:00,
2013-08-31 12:27:00,84.4,73.6,29.99,SSE,167,2.0,7.0,70,0.00,,---,0.00,VWS V14.01,2013-08-31 16:27:00,
2013-08-31 12:32:00,84.9,74.4,29.98,South,178,4.0,10.0,71,0.00,,---,0.00,VWS V14.01,2013-08-31 16:32:00,
2013-08-31 12:38:00,86.1,75.2,29.98,NW,306,3.0,10.0,70,0.00,,---,0.00,VWS V14.01,2013-08-31 16:38:00,
2013-08-31 12:43:00,87.0,74.7,29.98,South,182,2.0,10.0,67,0.00,,---,0.00,VWS V14.01,2013-08-31 16:43:00,
2013-08-31 12:48:00,86.6,75.2,29.98,South,175,1.0,5.0,69,0.00,,---,0.00,VWS V14.01,2013-08-31 16:48:00,
2013-08-31 12:53:00,86.1,74.8,29.98,South,173,3.0,6.0,69,0.00,,---,0.00,VWS V14.01,2013-08-31 16:53:00,
2013-08-31 12:58:00,86.3,74.5,29.98,SSE,155,3.0,6.0,68,0.00,,---,0.00,VWS V14.01,2013-08-31 16:58:00,
2013-08-31 13:03:00,85.5,74.2,29.98,South,190,0.0,3.0,69,0.00,,---,0.00,VWS V14.01,2013-08-31 17:03:00,
2013-08-31 13:08:00,86.3,74.1,29.98,SE,142,4.0,5.0,67,0.00,,---,0.00,VWS V14.01,2013-08-31 17:08:00,
2013-08-31 13:13:00,87.0,74.7,29.98,West,264,0.0,6.0,67,0.00,,---,0.00,VWS V14.01,2013-08-31 17:13:00,
2013-08-31 13:18:00,86.1,73.4,29.97,SW,229,2.0,5.0,66,0.00,,---,0.00,VWS V14.01,2013-08-31 17:18:00,
2013-08-31 13:23:00,86.7,74.9,29.98,SSE,149,5.0,8.0,68,0.00,,---,0.00,VWS V14.01,2013-08-31 17:23:00,
2013-08-31 13:29:00,85.8,74.0,29.98,SSW,205,2.0,8.0,68,0.00,,---,0.00,VWS V14.01,2013-08-31 17:29:00,
2013-08-31 13:34:00,86.0,74.7,29.97,SW,232,3.0,6.0,69,0.00,,---,0.00,VWS V14.01,2013-08-31 17:34:00,
2013-08-31 13:39:00,87.7,75.8,29.97,WNW,294,2.0,7.0,68,0.00,,---,0.00,VWS V14.01,2013-08-31 17:39:00,
2013-08-31 13:44:00,87.2,73.6,29.97,WSW,243,2.0,7.0,64,0.00,,---,0.00,VWS V14.01,2013-08-31 17:44:00,
2013-08-31 13:49:00,87.4,75.1,29.97,SSE,166,2.0,4.0,67,0.00,,---,0.00,VWS V14.01,2013-08-31 17:49:00,
2013-08-31 13:54:00,87.6,73.9,29.97,SSW,196,3.0,6.0,64,0.00,,---,0.00,VWS V14.01,2013-08-31 17:54:00,
2013-08-31 13:59:00,86.8,74.1,29.96,West,259,1.0,7.0,66,0.00,,---,0.00,VWS V14.01,2013-08-31 17:59:00,
2013-08-31 14:04:00,87.6,76.2,29.96,SE,144,3.0,5.0,69,0.00,,---,0.00,VWS V14.01,2013-08-31 18:04:00,
2013-08-31 14:10:00,87.7,74.9,29.96,SSE,159,4.0,6.0,66,0.00,,---,0.00,VWS V14.01,2013-08-31 18:10:00,
2013-08-31 14:15:00,86.8,74.1,29.96,South,178,5.0,6.0,66,0.00,,---,0.00,VWS V14.01,2013-08-31 18:15:00,
2013-08-31 14:20:00,87.4,74.7,29.95,South,188,1.0,5.0,66,0.00,,---,0.00,VWS V14.01,2013-08-31 18:20:00,
2013-08-31 14:25:00,86.6,73.9,29.95,SSW,192,2.0,6.0,66,0.00,,---,0.00,VWS V14.01,2013-08-31 18:25:00,
2013-08-31 14:30:00,86.4,73.7,29.95,South,171,3.0,8.0,66,0.00,,---,0.00,VWS V14.01,2013-08-31 18:30:00,
2013-08-31 14:35:00,86.3,73.6,29.95,South,171,2.0,6.0,66,0.00,,---,0.00,VWS V14.01,2013-08-31 18:35:00,
2013-08-31 14:40:00,86.9,74.6,29.95,West,261,3.0,9.0,67,0.00,,---,0.00,VWS V14.01,2013-08-31 18:40:00,
2013-08-31 14:45:00,87.5,74.8,29.94,SW,214,5.0,5.0,66,0.00,,---,0.00,VWS V14.01,2013-08-31 18:45:00,
2013-08-31 14:51:00,87.2,74.0,29.94,SSE,163,3.0,7.0,65,0.00,,---,0.00,VWS V14.01,2013-08-31 18:51:00,
2013-08-31 14:56:00,87.0,74.7,29.94,South,181,3.0,8.0,67,0.00,,---,0.00,VWS V14.01,2013-08-31 18:56:00,
2013-08-31 15:01:00,87.3,75.0,29.93,SSE,160,5.0,7.0,67,0.00,,---,0.00,VWS V14.01,2013-08-31 19:01:00,
2013-08-31 15:06:00,87.1,74.4,29.93,South,184,6.0,7.0,66,0.00,,---,0.00,VWS V14.01,2013-08-31 19:06:00,
2013-08-31 15:11:00,87.3,74.6,29.93,SSE,159,3.0,8.0,66,0.00,,---,0.00,VWS V14.01,2013-08-31 19:11:00,
2013-08-31 15:16:00,87.5,74.8,29.93,WNW,301,2.0,8.0,66,0.00,,---,0.00,VWS V14.01,2013-08-31 19:16:00,
2013-08-31 15:21:00,87.6,74.4,29.93,SSE,151,4.0,9.0,65,0.00,,---,0.00,VWS V14.01,2013-08-31 19:21:00,
2013-08-31 15:26:00,86.2,74.0,29.93,SSE,167,3.0,9.0,67,0.00,,---,0.00,VWS V14.01,2013-08-31 19:26:00,
2013-08-31 15:31:00,85.9,74.1,29.93,South,169,5.0,6.0,68,0.00,,---,0.00,VWS V14.01,2013-08-31 19:31:00,
2013-08-31 15:37:00,86.7,75.3,29.93,South,189,1.0,7.0,69,0.00,,---,0.00,VWS V14.01,2013-08-31 19:37:00,
2013-08-31 15:42:00,86.1,74.3,29.93,South,175,3.0,7.0,68,0.00,,---,0.00,VWS V14.01,2013-08-31 19:42:00,
2013-08-31 15:47:00,85.8,73.6,29.93,South,173,3.0,8.0,67,0.00,,---,0.00,VWS V14.01,2013-08-31 19:47:00,
2013-08-31 15:52:00,85.5,73.7,29.93,South,183,3.0,8.0,68,0.00,,---,0.00,VWS V14.01,2013-08-31 19:52:00,
2013-08-31 15:57:00,86.0,74.7,29.92,South,179,3.0,8.0,69,0.00,,---,0.00,VWS V14.01,2013-08-31 19:57:00,
2013-08-31 16:02:00,86.2,73.5,29.93,South,169,4.0,7.0,66,0.00,,---,0.00,VWS V14.01,2013-08-31 20:02:00,
2013-08-31 16:07:00,86.4,75.0,29.92,NW,322,2.0,7.0,69,0.00,,---,0.00,VWS V14.01,2013-08-31 20:07:00,
2013-08-31 16:12:00,87.1,75.3,29.93,WSW,246,3.0,7.0,68,0.00,,---,0.00,VWS V14.01,2013-08-31 20:12:00,
2013-08-31 16:17:00,86.9,75.5,29.93,South,178,5.0,5.0,69,0.00,,---,0.00,VWS V14.01,2013-08-31 20:17:00,
2013-08-31 16:22:00,86.9,75.1,29.92,SSE,154,2.0,8.0,68,0.00,,---,0.00,VWS V14.01,2013-08-31 20:22:00,
2013-08-31 16:28:00,86.6,74.8,29.92,WSW,252,5.0,8.0,68,0.00,,---,0.00,VWS V14.01,2013-08-31 20:28:00,
2013-08-31 16:33:00,86.2,75.3,29.93,SSE,148,0.0,4.0,70,0.00,,---,0.00,VWS V14.01,2013-08-31 20:33:00,
2013-08-31 16:38:00,85.9,74.6,29.93,SSW,192,2.0,7.0,69,0.00,,---,0.00,VWS V14.01,2013-08-31 20:38:00,
2013-08-31 16:43:00,85.7,73.9,29.93,SSW,209,3.0,7.0,68,0.00,,---,0.00,VWS V14.01,2013-08-31 20:43:00,
2013-08-31 16:48:00,85.4,73.2,29.93,South,190,3.0,5.0,67,0.00,,---,0.00,VWS V14.01,2013-08-31 20:48:00,
2013-08-31 16:53:00,84.8,73.5,29.93,SSE,148,1.0,6.0,69,0.00,,---,0.00,VWS V14.01,2013-08-31 20:53:00,
2013-08-31 16:58:00,84.5,73.2,29.93,SSW,205,1.0,6.0,69,0.00,,---,0.00,VWS V14.01,2013-08-31 20:58:00,
2013-08-31 17:03:00,84.3,73.5,29.93,SSW,194,2.0,5.0,70,0.00,,---,0.00,VWS V14.01,2013-08-31 21:03:00,
2013-08-31 17:08:00,84.1,73.3,29.93,SSW,198,2.0,5.0,70,0.00,,---,0.00,VWS V14.01,2013-08-31 21:08:00,
2013-08-31 17:14:00,84.1,73.7,29.93,SSE,161,2.0,5.0,71,0.00,,---,0.00,VWS V14.01,2013-08-31 21:14:00,
2013-08-31 17:19:00,84.2,74.2,29.93,South,177,1.0,4.0,72,0.00,,---,0.00,VWS V14.01,2013-08-31 21:19:00,
2013-08-31 17:24:00,84.3,74.3,29.93,South,188,3.0,5.0,72,0.00,,---,0.00,VWS V14.01,2013-08-31 21:24:00,
2013-08-31 17:29:00,84.5,74.1,29.92,SSW,204,1.0,5.0,71,0.00,,---,0.00,VWS V14.01,2013-08-31 21:29:00,
2013-08-31 17:34:00,84.7,75.1,29.92,South,188,2.0,5.0,73,0.00,,---,0.00,VWS V14.01,2013-08-31 21:34:00,
2013-08-31 17:39:00,85.0,74.6,29.92,SSW,199,6.0,6.0,71,0.00,,---,0.00,VWS V14.01,2013-08-31 21:39:00,
2013-08-31 17:44:00,84.8,74.4,29.91,SSW,196,0.0,9.0,71,0.00,,---,0.00,VWS V14.01,2013-08-31 21:44:00,
2013-08-31 17:49:00,84.4,74.0,29.92,South,173,3.0,9.0,71,0.00,,---,0.00,VWS V14.01,2013-08-31 21:49:00,
2013-08-31 17:54:00,84.1,73.7,29.92,South,186,2.0,9.0,71,0.00,,---,0.00,VWS V14.01,2013-08-31 21:54:00,
2013-08-31 17:59:00,84.1,74.1,29.92,SW,223,2.0,9.0,72,0.00,,---,0.00,VWS V14.01,2013-08-31 21:59:00,
2013-08-31 18:04:00,84.0,74.0,29.92,SSE,166,1.0,6.0,72,0.00,,---,0.00,VWS V14.01,2013-08-31 22:04:00,
2013-08-31 18:10:00,83.8,74.2,29.92,South,173,0.0,6.0,73,0.00,,---,0.00,VWS V14.01,2013-08-31 22:10:00,
2013-08-31 18:15:00,83.6,74.0,29.92,SSW,210,1.0,6.0,73,0.00,,---,0.00,VWS V14.01,2013-08-31 22:15:00,
2013-08-31 18:20:00,83.3,74.2,29.91,SSE,147,1.0,4.0,74,0.00,,---,0.00,VWS V14.01,2013-08-31 22:20:00,
2013-08-31 18:25:00,82.9,74.2,29.91,SSE,165,1.0,4.0,75,0.00,,---,0.00,VWS V14.01,2013-08-31 22:25:00,
2013-08-31 18:30:00,82.7,74.0,29.91,South,191,3.0,4.0,75,0.00,,---,0.00,VWS V14.01,2013-08-31 22:30:00,
2013-08-31 18:35:00,82.4,74.1,29.90,SSE,163,0.0,4.0,76,0.00,,---,0.00,VWS V14.01,2013-08-31 22:35:00,
2013-08-31 18:40:00,82.3,73.6,29.90,SSW,204,2.0,5.0,75,0.00,,---,0.00,VWS V14.01,2013-08-31 22:40:00,
2013-08-31 18:45:00,82.2,73.9,29.90,SE,133,3.0,3.0,76,0.00,,---,0.00,VWS V14.01,2013-08-31 22:45:00,
2013-08-31 18:50:00,82.1,73.8,29.90,SSW,192,0.0,5.0,76,0.00,,---,0.00,VWS V14.01,2013-08-31 22:50:00,
2013-08-31 18:56:00,82.0,73.7,29.90,South,176,1.0,6.0,76,0.00,,---,0.00,VWS V14.01,2013-08-31 22:56:00,
2013-08-31 19:01:00,81.8,73.5,29.90,South,171,3.0,3.0,76,0.00,,---,0.00,VWS V14.01,2013-08-31 23:01:00,
2013-08-31 19:06:00,81.6,73.3,29.90,SSE,165,2.0,4.0,76,0.00,,---,0.00,VWS V14.01,2013-08-31 23:06:00,
2013-08-31 19:11:00,81.4,73.1,29.90,South,184,0.0,5.0,76,0.00,,---,0.00,VWS V14.01,2013-08-31 23:11:00,
2013-08-31 19:16:00,81.2,73.3,29.90,South,171,1.0,4.0,77,0.00,,---,0.00,VWS V14.01,2013-08-31 23:16:00,
2013-08-31 19:21:00,81.0,73.5,29.91,SSE,161,0.0,4.0,78,0.00,,---,0.00,VWS V14.01,2013-08-31 23:21:00,
2013-08-31 19:26:00,80.9,73.8,29.91,SSE,168,1.0,4.0,79,0.00,,---,0.00,VWS V14.01,2013-08-31 23:26:00,
2013-08-31 19:31:00,80.7,73.6,29.91,SSW,198,0.0,3.0,79,0.00,,---,0.00,VWS V14.01,2013-08-31 23:31:00,
2013-08-31 19:36:00,80.6,73.9,29.91,South,184,0.0,3.0,80,0.00,,---,0.00,VWS V14.01,2013-08-31 23:36:00,
2013-08-31 19:42:00,80.4,73.7,29.91,South,184,0.0,3.0,80,0.00,,---,0.00,VWS V14.01,2013-08-31 23:42:00,
2013-08-31 19:47:00,80.2,73.8,29.92,South,184,0.0,0.0,81,0.00,,---,0.00,VWS V14.01,2013-08-31 23:47:00,
2013-08-31 19:52:00,80.1,73.8,29.92,SSW,196,0.0,1.0,81,0.00,,---,0.00,VWS V14.01,2013-08-31 23:52:00,
2013-08-31 19:57:00,80.0,74.0,29.93,SSW,196,0.0,1.0,82,0.00,,---,0.00,VWS V14.01,2013-08-31 23:57:00,
2013-08-31 20:02:00,79.8,73.8,29.93,NNW,328,0.0,2.0,82,0.00,,---,0.00,VWS V14.01,2013-09-01 00:02:00,
2013-08-31 20:07:00,79.6,74.0,29.92,NNW,332,0.0,2.0,83,0.00,,---,0.00,VWS V14.01,2013-09-01 00:07:00,
2013-08-31 20:12:00,79.1,73.8,29.92,NNW,332,0.0,2.0,84,0.00,,---,0.00,VWS V14.01,2013-09-01 00:12:00,
2013-08-31 20:17:00,78.9,73.7,29.92,NNW,332,0.0,0.0,84,0.00,,---,0.00,VWS V14.01,2013-09-01 00:17:00,
2013-08-31 20:22:00,78.6,73.7,29.93,NNW,332,0.0,1.0,85,0.00,,---,0.00,VWS V14.01,2013-09-01 00:22:00,
2013-08-31 20:28:00,78.6,73.7,29.93,NNW,332,0.0,1.0,85,0.00,,---,0.00,VWS V14.01,2013-09-01 00:28:00,
2013-08-31 20:33:00,78.3,73.4,29.94,NNW,332,2.0,2.0,85,0.00,,---,0.00,VWS V14.01,2013-09-01 00:33:00,
2013-08-31 20:38:00,78.0,73.1,29.94,NNW,338,2.0,3.0,85,0.00,,---,0.00,VWS V14.01,2013-09-01 00:38:00,
2013-08-31 20:43:00,77.6,73.1,29.94,NNW,338,0.0,3.0,86,0.00,,---,0.00,VWS V14.01,2013-09-01 00:43:00,
2013-08-31 20:48:00,77.3,73.1,29.94,North,350,0.0,2.0,87,0.00,,---,0.00,VWS V14.01,2013-09-01 00:48:00,
2013-08-31 20:53:00,77.0,72.8,29.95,North,350,0.0,2.0,87,0.00,,---,0.00,VWS V14.01,2013-09-01 00:53:00,
2013-08-31 20:59:00,76.8,72.6,29.95,North,350,0.0,2.0,87,0.00,,---,0.00,VWS V14.01,2013-09-01 00:59:00,
2013-08-31 21:04:00,76.7,72.9,29.95,North,350,0.0,0.0,88,0.00,,---,0.00,VWS V14.01,2013-09-01 01:04:00,
2013-08-31 21:09:00,76.5,72.7,29.95,North,350,0.0,0.0,88,0.00,,---,0.00,VWS V14.01,2013-09-01 01:09:00,
2013-08-31 21:14:00,76.4,72.6,29.95,North,350,0.0,1.0,88,0.00,,---,0.00,VWS V14.01,2013-09-01 01:14:00,
2013-08-31 21:19:00,76.5,72.7,29.95,North,349,0.0,2.0,88,0.00,,---,0.00,VWS V14.01,2013-09-01 01:19:00,
2013-08-31 21:24:00,76.7,72.9,29.95,NNW,348,1.0,2.0,88,0.00,,---,0.00,VWS V14.01,2013-09-01 01:24:00,
2013-08-31 21:30:00,76.7,72.9,29.96,NNW,348,0.0,2.0,88,0.00,,---,0.00,VWS V14.01,2013-09-01 01:30:00,
2013-08-31 21:35:00,76.7,72.9,29.95,NNW,348,0.0,1.0,88,0.00,,---,0.00,VWS V14.01,2013-09-01 01:35:00,
2013-08-31 21:40:00,76.6,73.1,29.96,NNW,348,0.0,1.0,89,0.00,,---,0.00,VWS V14.01,2013-09-01 01:40:00,
2013-08-31 21:45:00,76.5,73.0,29.96,NNW,348,1.0,2.0,89,0.00,,---,0.00,VWS V14.01,2013-09-01 01:45:00,
2013-08-31 21:50:00,76.3,72.8,29.96,NNW,348,0.0,1.0,89,0.00,,---,0.00,VWS V14.01,2013-09-01 01:50:00,
2013-08-31 21:56:00,76.2,72.7,29.96,NNW,348,0.0,1.0,89,0.00,,---,0.00,VWS V14.01,2013-09-01 01:56:00,
2013-08-31 22:01:00,76.1,73.0,29.96,NNW,348,0.0,0.0,90,0.00,,---,0.00,VWS V14.01,2013-09-01 02:01:00,
2013-08-31 22:06:00,76.0,72.9,29.96,NNW,348,0.0,0.0,90,0.00,,---,0.00,VWS V14.01,2013-09-01 02:06:00,
2013-08-31 22:11:00,75.8,72.7,29.96,NNW,348,0.0,0.0,90,0.00,,---,0.00,VWS V14.01,2013-09-01 02:11:00,
2013-08-31 22:16:00,75.6,72.8,29.96,NNW,348,0.0,0.0,91,0.00,,---,0.00,VWS V14.01,2013-09-01 02:16:00,
2013-08-31 22:22:00,75.5,72.7,29.96,NNW,348,0.0,0.0,91,0.00,,---,0.00,VWS V14.01,2013-09-01 02:22:00,
2013-08-31 22:27:00,75.4,72.6,29.96,NNW,348,0.0,0.0,91,0.00,,---,0.00,VWS V14.01,2013-09-01 02:27:00,
2013-08-31 22:32:00,75.1,72.3,29.96,NNW,348,0.0,0.0,91,0.00,,---,0.00,VWS V14.01,2013-09-01 02:32:00,
2013-08-31 22:37:00,75.1,72.6,29.95,NNW,348,0.0,1.0,92,0.00,,---,0.00,VWS V14.01,2013-09-01 02:37:00,
2013-08-31 22:42:00,75.0,72.5,29.95,NNW,348,0.0,1.0,92,0.00,,---,0.00,VWS V14.01,2013-09-01 02:42:00,
2013-08-31 22:47:00,75.0,72.5,29.95,NNW,348,0.0,0.0,92,0.00,,---,0.00,VWS V14.01,2013-09-01 02:47:00,
2013-08-31 22:53:00,74.9,72.4,29.95,NNW,348,0.0,0.0,92,0.00,,---,0.00,VWS V14.01,2013-09-01 02:53:00,
2013-08-31 22:58:00,74.7,72.2,29.95,NNW,348,0.0,0.0,92,0.00,,---,0.00,VWS V14.01,2013-09-01 02:58:00,
2013-08-31 23:03:00,74.4,71.9,29.95,NNW,348,0.0,0.0,92,0.00,,---,0.00,VWS V14.01,2013-09-01 03:03:00,
2013-08-31 23:08:00,74.3,71.8,29.95,NNW,348,0.0,0.0,92,0.00,,---,0.00,VWS V14.01,2013-09-01 03:08:00,
2013-08-31 23:13:00,74.0,71.5,29.94,NNW,348,0.0,0.0,92,0.00,,---,0.00,VWS V14.01,2013-09-01 03:13:00,
2013-08-31 23:19:00,73.9,71.8,29.94,NNW,348,0.0,0.0,93,0.00,,---,0.00,VWS V14.01,2013-09-01 03:19:00,
2013-08-31 23:24:00,73.9,71.8,29.94,NNW,348,0.0,0.0,93,0.00,,---,0.00,VWS V14.01,2013-09-01 03:24:00,
2013-08-31 23:29:00,73.7,71.6,29.94,NNW,348,0.0,0.0,93,0.00,,---,0.00,VWS V14.01,2013-09-01 03:29:00,
2013-08-31 23:34:00,73.4,71.3,29.94,NNW,348,0.0,0.0,93,0.00,,---,0.00,VWS V14.01,2013-09-01 03:34:00,
2013-08-31 23:39:00,73.3,71.2,29.94,NNW,348,0.0,0.0,93,0.00,,---,0.00,VWS V14.01,2013-09-01 03:39:00,
2013-08-31 23:45:00,73.3,71.2,29.94,NNW,348,0.0,0.0,93,0.00,,---,0.00,VWS V14.01,2013-09-01 03:45:00,
2013-08-31 23:50:00,73.2,71.1,29.93,NNW,348,0.0,0.0,93,0.00,,---,0.00,VWS V14.01,2013-09-01 03:50:00,
2013-08-31 23:55:00,73.1,71.3,29.93,NNW,348,0.0,0.0,94,0.00,,---,0.00,VWS V14.01,2013-09-01 03:55:00,